User: anonymous   Login
Location: Wien
(48.2082°N, 16.3738°E)
Time: 13:53:56
(UTC+02:00)
Language:

ISS - Orbit

View from above orbital plane
View from above orbital plane
View from above satellite
View from above satellite

Ground track
Ground track

The orbit data is extracted from the following two-line orbital elements,

1 25544U 98067A   24104.24037037  .00014482  00000-0  25990-3 0  9994
2 25544  51.6400 277.4281 0004701  64.7052 279.7679 15.50144222448464
Epoch (UTC): 13 April 2024 05:46:08
Eccentricity: 0.0004701
inclination: 51.6400°
perigee height: 413 km
apogee height: 419 km
right ascension of ascending node: 277.4281°
argument of perigee: 64.7052°
revolutions per day: 15.50144222
mean anomaly at epoch: 279.7679°
orbit number at epoch: 44846

The dashed part of the orbit path shows where the satellite is in the earth's shadow,  

DLR